Weather History for KCEF - January, 2014

Change the Weather History Date:

Saturday, January 11, 2014

  Actual Average Record
Temperature  
Mean Temperature 44 °F -  
Max Temperature 57 °F 30 °F 57 °F (2014)
Min Temperature 32 °F 16 °F -5 °F (2004)
Degree Days  
Heating Degree Days 20    
Moisture  
Dew Point 40 °F    
Average Humidity 100    
Maximum Humidity 100    
Minimum Humidity 93    
Precipitation  
Precipitation 0.71 in - - ()
Sea Level Pressure  
Sea Level Pressure 29.79 in    
Wind  
Wind Speed 4 mph (NW)    
Max Wind Speed 22 mph    
Max Gust Speed 28 mph    
Visibility 3 miles    
Events Fog , Rain , Thunderstorm    
Averages and records for this station are not official NWS values.
T = Trace of Precipitation, MM = Missing Value Source: NWS Daily Summary

Daily Weather History Graph

Daily Weather History Graph

Search for Another Location

Airport or City:

Trip Planner

Search our weather history database for the weather conditions in past years. The results will help you decide how hot, cold, wet, or windy it might be!

Date:

Astronomy

Jan. 11, 2014 Rise Set
Actual Time 7:17 AM EST 4:38 PM EST
Civil Twilight 6:46 AM EST 5:09 PM EST
Nautical Twilight 6:11 AM EST 5:44 PM EST
Astronomical Twilight 5:38 AM EST 6:18 PM EST
Moon 1:21 PM EST (1/11) 3:18 AM EST (1/11)
Length of Visible Light 10h 23m
Length of Day
9h 21m
Waxing Gibbous, 83% of the Moon is Illuminated
Jan 11
Waxing Gibbous
Jan 15
Full
Jan 24
Last Quarter
Jan 30
New
Feb 6
First Quarter

Hourly Weather History & Observations

Time (EST) Temp. Windchill Dew Point Humidity Pressure Visibility Wind Dir Wind Speed Gust Speed Precip Events Conditions
12:01 AM 32.0 °F - 32.0 °F 100% 30.24 in 0.8 mi Calm Calm - N/A   Overcast
12:40 AM 32.0 °F - 32.0 °F 100% 30.22 in 0.8 mi WNW 2.3 mph - N/A Rain Light Rain
12:58 AM 32.2 °F 28.9 °F 32.0 °F 99% 30.24 in 0.8 mi NW 3.5 mph - 0.00 in Rain Light Rain
1:19 AM 32.0 °F - 32.0 °F 100% 30.21 in 1.0 mi Calm Calm - N/A   Light Drizzle
1:24 AM 32.0 °F - 32.0 °F 100% 30.20 in 1.0 mi Calm Calm - N/A   Light Drizzle
1:36 AM 32.0 °F - 32.0 °F 100% 30.19 in 1.0 mi NE 1.2 mph - N/A   Light Drizzle
1:40 AM 32.0 °F - 32.0 °F 100% 30.19 in 1.0 mi NNE 2.3 mph - N/A   Overcast
1:46 AM 32.0 °F - 32.0 °F 100% 30.18 in 1.0 mi NNE 2.3 mph - N/A   Light Drizzle
1:51 AM 32.0 °F 28.7 °F 32.0 °F 100% 30.18 in 1.0 mi North 3.5 mph - N/A   Light Drizzle
1:58 AM 32.4 °F 29.1 °F 32.2 °F 99% 30.21 in 1.0 mi NNE 3.5 mph - 0.05 in Rain Light Rain
2:04 AM 32.0 °F 28.7 °F 32.0 °F 100% 30.18 in 1.0 mi North 3.5 mph - N/A Rain Light Rain
2:06 AM 32.0 °F - 32.0 °F 100% 30.18 in 1.2 mi North 2.3 mph - N/A   Light Drizzle
2:09 AM 32.0 °F - 32.0 °F 100% 30.17 in 1.2 mi NNE 2.3 mph - N/A   Overcast
2:23 AM 32.0 °F - 32.0 °F 100% 30.17 in 1.2 mi NNE 2.3 mph - N/A   Overcast
2:29 AM 32.0 °F - 32.0 °F 100% 30.16 in 1.2 mi NNE 2.3 mph - N/A   Overcast
2:31 AM 32.0 °F - 32.0 °F 100% 30.16 in 1.2 mi NNE 1.2 mph - N/A   Overcast
2:43 AM 32.0 °F - 32.0 °F 100% 30.16 in 1.2 mi NW 2.3 mph - N/A   Overcast
2:55 AM 32.0 °F - 32.0 °F 100% 30.15 in 1.2 mi NNW 2.3 mph - N/A   Overcast
2:56 AM 32.0 °F - 32.0 °F 100% 30.15 in 1.2 mi NW 2.3 mph - N/A   Light Drizzle
2:58 AM 32.0 °F - 32.0 °F 100% 30.18 in 1.2 mi NNW 2.3 mph - 0.00 in   Light Drizzle
3:05 AM 32.0 °F - 32.0 °F 100% 30.14 in 1.2 mi NW 2.3 mph - N/A Rain Light Rain
3:09 AM 32.0 °F - 32.0 °F 100% 30.14 in 1.5 mi NNW 1.2 mph - N/A   Light Drizzle
3:10 AM 32.0 °F - 32.0 °F 100% 30.14 in 1.5 mi North 2.3 mph - N/A   Light Drizzle
3:19 AM 32.0 °F - 32.0 °F 100% 30.14 in 1.5 mi WNW 2.3 mph - N/A   Light Drizzle
3:20 AM 32.0 °F 28.7 °F 32.0 °F 100% 30.14 in 1.2 mi WNW 3.5 mph - N/A   Light Drizzle
3:24 AM 32.0 °F 28.7 °F 32.0 °F 100% 30.13 in 1.5 mi NW 3.5 mph - N/A   Light Drizzle
3:26 AM 32.0 °F 28.7 °F 32.0 °F 100% 30.13 in 1.5 mi NW 3.5 mph - N/A   Light Drizzle
3:27 AM 32.0 °F 28.7 °F 32.0 °F 100% 30.13 in 1.5 mi NW 3.5 mph - N/A   Overcast
3:31 AM 32.0 °F - 32.0 °F 100% 30.13 in 1.5 mi NNW 2.3 mph - N/A   Overcast
3:39 AM 32.0 °F - 32.0 °F 100% 30.12 in 1.5 mi North 1.2 mph - N/A   Overcast
3:46 AM 32.0 °F - 32.0 °F 100% 30.11 in 1.2 mi Calm Calm - N/A   Overcast
3:48 AM 32.0 °F - 32.0 °F 100% 30.11 in 1.2 mi Calm Calm - N/A   Overcast
3:50 AM 32.0 °F - 32.0 °F 100% 30.11 in 1.0 mi North 1.2 mph - N/A   Overcast
3:52 AM 32.0 °F - 32.0 °F 100% 30.11 in 1.0 mi North 2.3 mph - N/A   Overcast
3:54 AM 32.0 °F - 32.0 °F 100% 30.11 in 1.0 mi North 1.2 mph - N/A   Overcast
3:58 AM 32.7 °F - 32.5 °F 99% 30.13 in 1.0 mi North 2.3 mph - 0.01 in   Overcast
4:02 AM 32.0 °F 28.7 °F 32.0 °F 100% 30.10 in 1.0 mi North 3.5 mph - N/A   Overcast
4:05 AM 32.0 °F 28.7 °F 32.0 °F 100% 30.10 in 1.0 mi North 3.5 mph - N/A   Overcast
4:06 AM 32.0 °F 28.7 °F 32.0 °F 100% 30.10 in 1.2 mi North 3.5 mph - N/A   Overcast
4:07 AM 32.0 °F 28.7 °F 32.0 °F 100% 30.10 in 1.2 mi North 3.5 mph - N/A   Overcast
4:08 AM 32.0 °F 28.7 °F 32.0 °F 100% 30.10 in 1.2 mi North 3.5 mph - N/A Rain Light Rain
4:09 AM 32.0 °F 28.7 °F 32.0 °F 100% 30.10 in 1.5 mi North 3.5 mph - N/A Rain Light Rain
4:12 AM 32.0 °F - 32.0 °F 100% 30.10 in 1.5 mi North 2.3 mph - N/A Rain Light Rain
4:13 AM 32.0 °F - 32.0 °F 100% 30.09 in 1.8 mi North 2.3 mph - N/A Rain Light Rain
4:17 AM 32.0 °F 28.7 °F 32.0 °F 100% 30.09 in 2.0 mi NE 3.5 mph - N/A Rain Light Rain
4:23 AM 32.0 °F - 32.0 °F 100% 30.09 in 1.8 mi North 1.2 mph - N/A Rain Light Rain
4:27 AM 32.0 °F 28.7 °F 32.0 °F 100% 30.08 in 1.5 mi North 3.5 mph - N/A Rain Light Rain
4:28 AM 32.0 °F 27.5 °F 32.0 °F 100% 30.08 in 1.5 mi North 4.6 mph - N/A Rain Light Rain
4:35 AM 32.0 °F - 32.0 °F 100% 30.08 in 1.5 mi NNE 2.3 mph - N/A Rain Light Rain
4:36 AM 32.0 °F - 32.0 °F 100% 30.08 in 1.2 mi NNE 1.2 mph - N/A   Light Drizzle
4:37 AM 32.0 °F - 32.0 °F 100% 30.08 in 1.2 mi Calm Calm - N/A   Overcast
4:42 AM 32.0 °F - 32.0 °F 100% 30.08 in 1.2 mi Calm Calm - N/A Rain Light Rain
4:48 AM 32.0 °F - 32.0 °F 100% 30.07 in 1.0 mi North 1.2 mph - N/A Rain Light Rain
4:49 AM 32.0 °F - 32.0 °F 100% 30.07 in 1.0 mi Calm Calm - N/A Rain Light Rain
4:51 AM 32.0 °F - 32.0 °F 100% 30.07 in 1.0 mi Calm Calm - N/A   Overcast
4:57 AM 32.0 °F - 32.0 °F 100% 30.07 in 1.0 mi Calm Calm - N/A   Overcast
4:58 AM 32.9 °F - 32.7 °F 99% 30.10 in 1.0 mi Calm Calm - 0.01 in   Overcast
5:00 AM 32.0 °F - 32.0 °F 100% 30.06 in 1.2 mi Calm Calm - N/A   Overcast
5:02 AM 32.0 °F - 32.0 °F 100% 30.06 in 1.0 mi Calm Calm - N/A   Overcast
5:04 AM 32.0 °F - 32.0 °F 100% 30.06 in 1.0 mi Calm Calm - N/A   Overcast
5:07 AM 32.0 °F - 32.0 °F 100% 30.06 in 0.8 mi North 2.3 mph - N/A   Overcast
5:13 AM 32.0 °F - 32.0 °F 100% 30.05 in 0.8 mi Calm Calm - N/A Rain Light Rain
5:19 AM 32.0 °F - 32.0 °F 100% 30.05 in 0.5 mi North 1.2 mph - N/A Fog Light Drizzle
5:24 AM 32.0 °F - 32.0 °F 100% 30.05 in 0.5 mi North 2.3 mph - N/A Fog Fog
5:32 AM 32.0 °F 28.7 °F 32.0 °F 100% 30.05 in 0.8 mi WNW 3.5 mph - N/A   Overcast
5:46 AM 32.0 °F - 32.0 °F 100% 30.04 in 0.5 mi WNW 2.3 mph - N/A Fog Fog
5:56 AM 32.0 °F - 32.0 °F 100% 30.04 in 0.5 mi Calm Calm - N/A Fog Fog
5:58 AM 32.0 °F - 32.0 °F 100% 30.06 in 0.5 mi North 1.2 mph - 0.00 in Fog Fog
5:59 AM 32.0 °F - 32.0 °F 100% 30.03 in 0.5 mi Calm Calm - N/A Fog Fog
6:01 AM 32.0 °F - 32.0 °F 100% 30.03 in 0.5 mi NNE 1.2 mph - N/A Fog Fog
6:12 AM 32.0 °F - 32.0 °F 100% 30.03 in 0.5 mi NE 2.3 mph - N/A Fog Fog
6:21 AM 32.0 °F 28.7 °F 32.0 °F 100% 30.02 in 0.2 mi NE 3.5 mph - N/A Fog Fog
6:29 AM 32.0 °F 28.7 °F 32.0 °F 100% 30.01 in 0.2 mi ENE 3.5 mph - N/A Fog Fog
6:58 AM 32.7 °F 29.6 °F 32.5 °F 99% 30.02 in 0.2 mi North 3.5 mph - N/A Fog Fog
7:03 AM 32.0 °F - 32.0 °F 100% 29.98 in 0.2 mi NNE 2.3 mph - N/A Fog , Rain Light Rain
7:14 AM 33.8 °F - 32.0 °F 93% 29.97 in 0.2 mi North 2.3 mph - N/A Fog , Rain Light Rain
7:25 AM 32.0 °F - 32.0 °F 100% 29.95 in 0.2 mi North 2.3 mph - N/A Fog , Rain Light Rain
7:32 AM 32.0 °F - 32.0 °F 100% 29.95 in 0.2 mi North 1.2 mph - N/A Fog , Rain Light Rain
7:33 AM 32.0 °F - 32.0 °F 100% 29.94 in 0.2 mi Variable 1.2 mph - N/A Fog , Rain Light Rain
7:36 AM 32.0 °F - 32.0 °F 100% 29.94 in 0.2 mi NE 2.3 mph - N/A Fog , Rain Light Rain
7:38 AM 32.0 °F - 32.0 °F 100% 29.94 in 0.2 mi NNE 2.3 mph - N/A Fog , Rain Light Rain
7:42 AM 32.0 °F - 32.0 °F 100% 29.94 in 0.2 mi NE 2.3 mph - N/A Fog , Rain Light Rain
7:49 AM 32.0 °F - 32.0 °F 100% 29.93 in 0.2 mi NW 2.3 mph - N/A Fog , Rain Light Rain
7:51 AM 32.0 °F - 32.0 °F 100% 29.93 in 0.2 mi NW 1.2 mph - N/A Fog , Rain Light Rain
7:57 AM 32.0 °F - 32.0 °F 100% 29.93 in 0.5 mi WNW 2.3 mph - N/A Fog Light Drizzle
7:58 AM 32.0 °F - 32.0 °F 100% 29.96 in 0.5 mi NW 2.3 mph - 0.04 in Fog Light Drizzle
8:13 AM 32.0 °F 28.7 °F 32.0 °F 100% 29.93 in 0.8 mi WNW 3.5 mph - N/A Rain Light Rain
8:15 AM 32.0 °F 28.7 °F 32.0 °F 100% 29.93 in 0.8 mi WNW 3.5 mph - N/A Rain Rain
8:18 AM 32.0 °F 28.7 °F 32.0 °F 100% 29.92 in 0.8 mi WNW 3.5 mph - N/A Rain Light Rain
8:19 AM 32.0 °F 28.7 °F 32.0 °F 100% 29.92 in 1.0 mi WNW 3.5 mph - N/A Rain Light Rain
8:22 AM 32.0 °F - 32.0 °F 100% 29.92 in 0.8 mi NNW 1.2 mph - N/A Rain Light Rain
8:23 AM 32.0 °F - 32.0 °F 100% 29.92 in 0.8 mi Calm Calm - N/A Rain Light Rain
8:26 AM 32.0 °F - 32.0 °F 100% 29.91 in 0.8 mi NNW 2.3 mph - N/A Rain Light Rain
8:28 AM 32.0 °F - 32.0 °F 100% 29.91 in 1.0 mi NW 2.3 mph - N/A Rain Light Rain
8:30 AM 32.0 °F - 32.0 °F 100% 29.91 in 1.0 mi NNW 2.3 mph - N/A Rain Light Rain
8:31 AM 32.0 °F - 32.0 °F 100% 29.91 in 1.0 mi NNW 2.3 mph - N/A Rain Light Rain
8:33 AM 32.0 °F - 32.0 °F 100% 29.91 in 1.2 mi North 2.3 mph - N/A   Light Drizzle
8:41 AM 32.0 °F 28.7 °F 32.0 °F 100% 29.90 in 1.0 mi NNE 3.5 mph - N/A   Light Drizzle
8:42 AM 32.0 °F 28.7 °F 32.0 °F 100% 29.90 in 1.0 mi NNE 3.5 mph - N/A   Light Drizzle
8:43 AM 32.0 °F 28.7 °F 32.0 °F 100% 29.90 in 1.0 mi NNE 3.5 mph - N/A   Light Drizzle
8:45 AM 32.0 °F 28.7 °F 32.0 °F 100% 29.90 in 1.0 mi North 3.5 mph - N/A Rain Light Rain
8:47 AM 32.0 °F 28.7 °F 32.0 °F 100% 29.90 in 1.0 mi North 3.5 mph - N/A Rain Light Rain
8:48 AM 32.0 °F 28.7 °F 32.0 °F 100% 29.90 in 1.2 mi North 3.5 mph - N/A Rain Light Rain
8:50 AM 32.0 °F - 32.0 °F 100% 29.90 in 1.5 mi North 2.3 mph - N/A Rain Light Rain
8:52 AM 32.0 °F - 32.0 °F 100% 29.90 in 1.8 mi North 2.3 mph - N/A Rain Light Rain
8:58 AM 33.6 °F 30.6 °F 33.4 °F 99% 29.93 in 1.8 mi ENE 3.5 mph - 0.05 in Rain Light Rain
9:06 AM 33.8 °F 29.6 °F 32.0 °F 93% 29.88 in 2.0 mi East 4.6 mph - N/A   Overcast
9:15 AM 33.8 °F - 33.8 °F 100% 29.89 in 2.5 mi Variable 2.3 mph - N/A   Overcast
9:20 AM 33.8 °F - 33.8 °F 100% 29.88 in 3.0 mi NE 2.3 mph - N/A   Overcast
9:22 AM 33.8 °F - 33.8 °F 100% 29.88 in 3.0 mi ENE 2.3 mph - N/A Rain Light Rain
9:26 AM 33.8 °F - 33.8 °F 100% 29.88 in 2.5 mi NNE 1.2 mph - N/A Rain Light Rain
9:30 AM 33.8 °F - 33.8 °F 100% 29.88 in 2.0 mi Calm Calm - N/A Rain Light Rain
9:33 AM 33.8 °F - 33.8 °F 100% 29.88 in 2.0 mi Calm Calm - N/A   Overcast
9:34 AM 33.8 °F - 33.8 °F 100% 29.88 in 1.8 mi Calm Calm - N/A   Overcast
9:45 AM 33.8 °F 29.6 °F 33.8 °F 100% 29.87 in 1.5 mi WNW 4.6 mph - N/A   Light Drizzle
9:53 AM 33.8 °F - 33.8 °F 100% 29.87 in 1.5 mi Calm Calm - N/A   Overcast
9:54 AM 33.8 °F - 33.8 °F 100% 29.86 in 1.5 mi Calm Calm - N/A Rain Light Rain
9:55 AM 33.8 °F - 33.8 °F 100% 29.86 in 1.2 mi Calm Calm - N/A Rain Light Rain
9:58 AM 34.5 °F - 34.2 °F 99% 29.89 in 1.2 mi NNW 1.2 mph - 0.03 in Rain Light Rain
10:00 AM 33.8 °F - 33.8 °F 100% 29.86 in 1.0 mi Variable 2.3 mph - N/A Rain Light Rain
10:02 AM 33.8 °F - 33.8 °F 100% 29.86 in 1.0 mi Calm Calm - N/A Rain Rain
10:07 AM 33.8 °F - 33.8 °F 100% 29.86 in 1.0 mi Calm Calm - N/A Rain Light Rain
10:11 AM 33.8 °F - 33.8 °F 100% 29.85 in 1.2 mi NE 2.3 mph - N/A Rain Light Rain
10:19 AM 33.8 °F - 33.8 °F 100% 29.85 in 1.0 mi North 1.2 mph - N/A Rain Light Rain
10:21 AM 33.8 °F - 33.8 °F 100% 29.84 in 1.0 mi ENE 1.2 mph - N/A Rain Light Rain
10:23 AM 35.6 °F - 33.8 °F 93% 29.84 in 1.0 mi ENE 1.2 mph - N/A Rain Light Rain
10:24 AM 35.6 °F - 33.8 °F 93% 29.84 in 0.8 mi Calm Calm - N/A Rain Light Rain
10:27 AM 35.6 °F - 33.8 °F 93% 29.84 in 1.0 mi Calm Calm - N/A Rain Light Rain
10:28 AM 35.6 °F - 33.8 °F 93% 29.84 in 1.0 mi NNE 1.2 mph - N/A Rain Light Rain
10:29 AM 35.6 °F - 35.6 °F 100% 29.83 in 1.0 mi NE 1.2 mph - N/A Rain Light Rain
10:30 AM 35.6 °F - 35.6 °F 100% 29.83 in 1.2 mi ENE 2.3 mph - N/A Rain Light Rain
10:36 AM 35.6 °F - 35.6 °F 100% 29.83 in 1.0 mi East 1.2 mph - N/A Rain Light Rain
10:37 AM 35.6 °F - 35.6 °F 100% 29.83 in 1.0 mi ENE 1.2 mph - N/A Rain Light Rain
10:38 AM 35.6 °F - 35.6 °F 100% 29.83 in 0.8 mi ENE 1.2 mph - N/A Rain Light Rain
10:41 AM 35.6 °F - 35.6 °F 100% 29.82 in 0.8 mi ENE 2.3 mph - N/A Rain Light Rain
10:46 AM 35.6 °F - 35.6 °F 100% 29.81 in 0.8 mi East 2.3 mph - N/A Rain Light Rain
10:47 AM 35.6 °F - 35.6 °F 100% 29.81 in 1.0 mi East 2.3 mph - N/A Rain Light Rain
10:52 AM 35.6 °F - 35.6 °F 100% 29.81 in 1.0 mi Calm Calm - N/A Rain Light Rain
10:53 AM 35.6 °F - 35.6 °F 100% 29.81 in 1.0 mi Calm Calm - N/A Rain Light Rain
10:54 AM 35.6 °F - 35.6 °F 100% 29.81 in 1.0 mi Calm Calm - N/A Rain Light Rain
10:56 AM 35.6 °F - 35.6 °F 100% 29.81 in 1.2 mi Calm Calm - N/A Rain Light Rain
10:58 AM 35.6 °F - 35.6 °F 100% 29.83 in 1.2 mi Calm Calm - 0.11 in   Light Drizzle
10:59 AM 35.6 °F - 35.6 °F 100% 29.80 in 1.5 mi Calm Calm - N/A   Light Drizzle
11:01 AM 35.6 °F - 35.6 °F 100% 29.79 in 1.8 mi NNE 1.2 mph - N/A   Light Drizzle
11:04 AM 35.6 °F - 35.6 °F 100% 29.79 in 1.5 mi Calm Calm - N/A   Light Drizzle
11:06 AM 35.6 °F - 35.6 °F 100% 29.79 in 1.2 mi Calm Calm - N/A   Light Drizzle
11:07 AM 35.6 °F - 35.6 °F 100% 29.79 in 1.0 mi Calm Calm - N/A   Light Drizzle
11:09 AM 35.6 °F - 35.6 °F 100% 29.79 in 1.0 mi Calm Calm - N/A   Light Drizzle
11:10 AM 35.6 °F - 35.6 °F 100% 29.79 in 1.0 mi Calm Calm - N/A   Light Drizzle
11:11 AM 35.6 °F - 35.6 °F 100% 29.78 in 0.8 mi Variable 1.2 mph - N/A   Light Drizzle
11:12 AM 35.6 °F - 35.6 °F 100% 29.78 in 0.8 mi Calm Calm - N/A   Light Drizzle
11:14 AM 35.6 °F - 35.6 °F 100% 29.78 in 0.8 mi Calm Calm - N/A Rain Light Rain
11:20 AM 35.6 °F - 35.6 °F 100% 29.77 in 0.8 mi Calm Calm - N/A Rain Light Rain
11:22 AM 35.6 °F - 35.6 °F 100% 29.77 in 0.8 mi Calm Calm - N/A Rain Light Rain
11:23 AM 35.6 °F - 35.6 °F 100% 29.77 in 0.8 mi Calm Calm - N/A Rain Light Rain
11:25 AM 37.4 °F - 35.6 °F 93% 29.76 in 1.0 mi Calm Calm - N/A   Light Drizzle
11:27 AM 37.4 °F - 37.4 °F 100% 29.76 in 1.0 mi Calm Calm - N/A   Light Drizzle
11:29 AM 37.4 °F - 37.4 °F 100% 29.76 in 1.0 mi Calm Calm - N/A   Light Drizzle
11:31 AM 37.4 °F - 37.4 °F 100% 29.75 in 0.8 mi NW 1.2 mph - N/A   Light Drizzle
11:33 AM 37.4 °F - 37.4 °F 100% 29.75 in 0.8 mi West 2.3 mph - N/A   Light Drizzle
11:36 AM 37.4 °F - 37.4 °F 100% 29.75 in 0.5 mi WNW 2.3 mph - N/A Fog Light Drizzle
11:42 AM 37.4 °F - 37.4 °F 100% 29.74 in 0.5 mi Calm Calm - N/A Fog Fog
11:46 AM 37.4 °F - 37.4 °F 100% 29.73 in 0.2 mi NNW 1.2 mph - N/A Fog Fog
11:58 AM 37.0 °F - 37.0 °F 100% 29.75 in 0.2 mi Calm Calm - 0.02 in Fog Fog
12:03 PM 37.4 °F - 37.4 °F 100% 29.71 in 0.2 mi North 1.2 mph - N/A Fog Fog
12:09 PM 37.4 °F - 37.4 °F 100% 29.70 in 0.2 mi North 1.2 mph - N/A Fog Fog
12:25 PM 37.4 °F - 37.4 °F 100% 29.67 in 0.2 mi NNW 1.2 mph - N/A Fog Fog
12:27 PM 37.4 °F - 37.4 °F 100% 29.67 in 0.2 mi Calm Calm - N/A Fog Light Drizzle
12:30 PM 37.4 °F - 37.4 °F 100% 29.67 in 0.2 mi Variable 1.2 mph - N/A Fog Light Drizzle
12:36 PM 37.4 °F 34.9 °F 37.4 °F 100% 29.66 in 0.2 mi West 3.5 mph - N/A Fog Light Drizzle
12:51 PM 39.2 °F - 39.2 °F 100% 29.64 in 0.2 mi Variable 2.3 mph - N/A Fog , Rain Light Rain
12:57 PM 42.8 °F 37.0 °F 42.8 °F 100% 29.62 in 0.2 mi SSW 10.4 mph - N/A Fog , Rain Light Rain
12:58 PM 42.8 °F 36.2 °F 42.8 °F 100% 29.65 in 0.2 mi SSW 12.7 mph - 0.01 in Fog , Rain Light Rain
12:59 PM 44.6 °F 38.1 °F 44.6 °F 100% 29.62 in 0.2 mi SSW 13.8 mph - N/A Fog , Rain Light Rain
1:00 PM 46.4 °F 40.4 °F 46.4 °F 100% 29.62 in 0.2 mi SSW 13.8 mph - N/A Fog , Rain Light Rain
1:01 PM 48.2 °F - 48.2 °F 100% 29.62 in 0.2 mi SSW 16.1 mph 20.7 mph N/A Fog , Rain Light Rain
1:04 PM 51.8 °F - 51.8 °F 100% 29.62 in 0.5 mi SSW 15.0 mph 20.7 mph N/A Fog , Rain Light Rain
1:05 PM 51.8 °F - 51.8 °F 100% 29.62 in 0.8 mi SSW 13.8 mph 20.7 mph N/A Rain Light Rain
1:26 PM 55.4 °F - 55.4 °F 100% 29.59 in 1.2 mi South 13.8 mph - N/A   Light Drizzle
1:32 PM 55.4 °F - 55.4 °F 100% 29.59 in 6.0 mi South 13.8 mph - N/A   Overcast
1:34 PM 55.4 °F - 55.4 °F 100% 29.58 in 10.0 mi South 13.8 mph - N/A   Overcast
1:41 PM 55.4 °F - 55.4 °F 100% 29.57 in 9.0 mi South 13.8 mph - N/A Rain Light Rain
1:58 PM 55.2 °F - 55.2 °F 100% 29.57 in 10.0 mi South 16.1 mph - 0.03 in   Light Drizzle
2:00 PM 55.4 °F - 55.4 °F 100% 29.55 in 9.0 mi South 15.0 mph - N/A Rain Light Rain
2:07 PM 55.4 °F - 55.4 °F 100% 29.54 in 9.0 mi South 15.0 mph - N/A Rain Light Rain
2:22 PM 55.4 °F - 55.4 °F 100% 29.52 in 3.0 mi South 13.8 mph - N/A Rain Light Rain
2:26 PM 55.4 °F - 55.4 °F 100% 29.51 in 3.0 mi South 16.1 mph - N/A Rain Light Rain
2:28 PM 57.2 °F - 57.2 °F 100% 29.51 in 3.0 mi South 17.3 mph 23.0 mph N/A Rain Light Rain
2:40 PM 57.2 °F - 57.2 °F 100% 29.51 in 1.5 mi SSW 13.8 mph 23.0 mph N/A Rain , Thunderstorm Light Rain
2:47 PM 57.2 °F - 57.2 °F 100% 29.51 in 3.0 mi SSW 11.5 mph 20.7 mph N/A Rain , Thunderstorm Light Rain
2:54 PM 57.2 °F - 57.2 °F 100% 29.51 in 3.0 mi SSW 9.2 mph - N/A Rain Light Rain
2:58 PM 56.5 °F - 56.5 °F 100% 29.53 in 3.0 mi SSW 8.1 mph - 0.13 in Rain Light Rain
3:01 PM 55.4 °F - 55.4 °F 100% 29.50 in 3.0 mi SSW 9.2 mph - N/A Rain Light Rain
3:03 PM 57.2 °F - 57.2 °F 100% 29.50 in 5.0 mi South 10.4 mph - N/A Rain Light Rain
3:08 PM 57.2 °F - 57.2 °F 100% 29.48 in 9.0 mi South 9.2 mph - N/A Rain Light Rain
3:30 PM 57.2 °F - 57.2 °F 100% 29.48 in 10.0 mi South 12.7 mph - N/A   Light Drizzle
3:42 PM 57.2 °F - 57.2 °F 100% 29.48 in 10.0 mi South 16.1 mph - N/A   Light Drizzle
3:56 PM 57.2 °F - 57.2 °F 100% 29.46 in 4.0 mi SSW 16.1 mph - N/A Rain Light Rain
3:58 PM 57.4 °F - 57.4 °F 100% 29.47 in 4.0 mi SSW 16.1 mph - 0.00 in Rain Light Rain
4:04 PM 57.2 °F - 57.2 °F 100% 29.45 in 4.0 mi South 11.5 mph 20.7 mph N/A Rain Light Rain
4:56 PM 57.2 °F - 57.2 °F 100% 29.40 in 9.0 mi South 12.7 mph - N/A Rain Light Rain
4:58 PM 57.2 °F - 57.2 °F 100% 29.42 in 9.0 mi South 13.8 mph - 0.01 in Rain Light Rain
5:20 PM 57.2 °F - 57.2 °F 100% 29.38 in 10.0 mi South 13.8 mph 23.0 mph N/A Rain Light Rain
5:47 PM 57.2 °F - 57.2 °F 100% 29.35 in 6.0 mi South 18.4 mph 26.5 mph N/A Rain Light Rain
5:58 PM 57.2 °F - 57.0 °F 99% 29.39 in 8.0 mi SSW 18.4 mph 27.6 mph 0.06 in Rain Light Rain
6:01 PM 57.2 °F - 57.2 °F 100% 29.37 in 9.0 mi SSW 16.1 mph 27.6 mph N/A Rain Light Rain
6:17 PM 57.2 °F - 57.2 °F 100% 29.36 in 10.0 mi SSW 16.1 mph 24.2 mph N/A   Light Drizzle
6:58 PM 56.1 °F - 56.1 °F 100% 29.39 in 8.0 mi SSW 13.8 mph - 0.02 in Rain Rain
7:04 PM 55.4 °F - 55.4 °F 100% 29.36 in 8.0 mi SSW 10.4 mph - N/A Rain Light Rain
7:12 PM 55.4 °F - 55.4 °F 100% 29.35 in 10.0 mi SSW 10.4 mph - N/A Rain Light Rain
7:15 PM 55.4 °F - 55.4 °F 100% 29.35 in 10.0 mi SSW 11.5 mph - N/A Rain Light Rain
7:20 PM 55.4 °F - 55.4 °F 100% 29.35 in 10.0 mi SSW 11.5 mph - N/A Rain Light Rain
7:23 PM 55.4 °F - 55.4 °F 100% 29.35 in 10.0 mi South 11.5 mph - N/A Rain Light Rain
7:25 PM 55.4 °F - 55.4 °F 100% 29.36 in 10.0 mi South 10.4 mph - N/A Rain Light Rain
7:29 PM 55.4 °F - 55.4 °F 100% 29.36 in 10.0 mi South 10.4 mph - N/A Rain Light Rain
7:33 PM 55.4 °F - 55.4 °F 100% 29.36 in 10.0 mi South 10.4 mph - N/A Rain Light Rain
7:34 PM 55.4 °F - 55.4 °F 100% 29.36 in 10.0 mi South 10.4 mph - N/A Rain Light Rain
7:37 PM 55.4 °F - 55.4 °F 100% 29.36 in 10.0 mi South 10.4 mph - N/A Rain Light Rain
7:42 PM 55.4 °F - 55.4 °F 100% 29.36 in 10.0 mi South 11.5 mph - N/A Rain Light Rain
7:43 PM 55.4 °F - 55.4 °F 100% 29.36 in 10.0 mi South 11.5 mph - N/A Rain Light Rain
7:50 PM 55.4 °F - 55.4 °F 100% 29.36 in 10.0 mi South 12.7 mph - N/A Rain Light Rain
7:58 PM 54.9 °F - 54.9 °F 100% 29.38 in 10.0 mi South 11.5 mph - 0.05 in Rain Light Rain
8:58 PM 54.0 °F - 54.0 °F 100% 29.35 in 10.0 mi South 11.5 mph - 0.06 in Rain Light Rain
9:58 PM 53.1 °F - 53.1 °F 100% 29.30 in 10.0 mi South 12.7 mph - 0.00 in   Light Drizzle
10:30 PM 51.8 °F - 51.8 °F 100% 29.31 in 10.0 mi SSW 12.7 mph - N/A   Partly Cloudy
10:40 PM 51.8 °F - 51.8 °F 100% 29.31 in 10.0 mi SSW 12.7 mph - N/A   Scattered Clouds
10:44 PM 51.8 °F - 51.8 °F 100% 29.32 in 10.0 mi SSW 13.8 mph - N/A   Light Drizzle
10:52 PM 53.6 °F - 53.6 °F 100% 29.31 in 10.0 mi SSW 16.1 mph 23.0 mph N/A   Light Drizzle
10:58 PM 52.7 °F - 52.7 °F 100% 29.32 in 10.0 mi SSW 16.1 mph 23.0 mph 0.00 in   Light Drizzle
10:59 PM 53.6 °F - 53.6 °F 100% 29.30 in 10.0 mi SSW 16.1 mph 23.0 mph N/A   Mostly Cloudy
11:01 PM 53.6 °F - 53.6 °F 100% 29.30 in 10.0 mi SSW 16.1 mph - N/A   Overcast
11:03 PM 51.8 °F - 51.8 °F 100% 29.30 in 10.0 mi SSW 15.0 mph - N/A   Light Drizzle
11:07 PM 51.8 °F - 51.8 °F 100% 29.30 in 10.0 mi SSW 18.4 mph - N/A   Light Drizzle
11:14 PM 51.8 °F - 51.8 °F 100% 29.31 in 10.0 mi SSW 16.1 mph - N/A   Light Drizzle
11:16 PM 51.8 °F - 51.8 °F 100% 29.31 in 10.0 mi SSW 15.0 mph - N/A   Mostly Cloudy
11:19 PM 51.8 °F - 51.8 °F 100% 29.31 in 10.0 mi SSW 15.0 mph - N/A   Overcast
11:23 PM 51.8 °F - 51.8 °F 100% 29.31 in 10.0 mi SSW 12.7 mph - N/A Rain Light Rain
11:27 PM 51.8 °F - 51.8 °F 100% 29.31 in 10.0 mi WSW 9.2 mph - N/A Rain Light Rain
11:29 PM 51.8 °F - 51.8 °F 100% 29.30 in 9.0 mi West 10.4 mph - N/A Rain Light Rain
11:32 PM 51.8 °F - 51.8 °F 100% 29.32 in 8.0 mi West 9.2 mph - N/A Rain Light Rain
11:35 PM 51.8 °F - 51.8 °F 100% 29.32 in 6.0 mi SW 10.4 mph - N/A Rain Light Rain
11:40 PM 51.8 °F - 51.8 °F 100% 29.32 in 6.0 mi SSW 20.7 mph 27.6 mph N/A Rain Light Rain
11:41 PM 51.8 °F - 51.8 °F 100% 29.32 in 6.0 mi SW 21.9 mph 27.6 mph N/A Rain Light Rain
11:43 PM 51.8 °F - 51.8 °F 100% 29.32 in 6.0 mi SSW 17.3 mph 27.6 mph N/A Rain Light Rain
11:47 PM 51.8 °F - 51.8 °F 100% 29.32 in 10.0 mi SSW 13.8 mph 27.6 mph N/A   Light Drizzle
11:58 PM 52.0 °F - 52.0 °F 100% 29.32 in 10.0 mi SSW 13.8 mph - 0.02 in   Light Drizzle